Location: Bennemühlen
(52.5740°N, 9.7135°E)
Time: 00:57:41
(UTC+00:00)

Cosmos 2237 Rocket - Pass Details

Date: 19 May 2025
Orbit: 834 x 849 km, 71.0° (Epoch: 22 June)

Event Time Altitude Azimuth Distance (km) Brightness Sun altitude
Rises 23:39:52 0° 329° (NNW) 3,399 6.2 -17.3°
Reaches altitude 10° 23:42:36 10° 339° (NNW) 2,464 5.6 -17.2°
Maximum altitude 23:47:37 32° 42° (NE) 1,418 3.9 -17.1°
Drops below altitude 10° 23:52:39 10° 105° (ESE) 2,462 4.6 -17.0°
Sets 23:55:21 0° 115° (ESE) 3,397 5.2 -17.0°
